TimeEST,TemperatureF,Dew PointF,Humidity,Sea Level PressureIn,VisibilityMPH,Wind Direction,Wind SpeedMPH,Gust SpeedMPH,PrecipitationIn,Events,Conditions,WindDirDegrees,DateUTC
12:15 AM,51.8,50.0,94,30.04,10.0,Calm,Calm,-,N/A,,Clear,0,2012-11-04 04:15:00
12:35 AM,51.8,50.0,94,30.04,10.0,Calm,Calm,-,N/A,,Clear,0,2012-11-04 04:35:00
12:55 AM,51.8,50.0,94,30.04,10.0,Calm,Calm,-,N/A,,Clear,0,2012-11-04 04:55:00
1:15 AM,50.0,50.0,100,30.04,10.0,Calm,Calm,-,N/A,,Clear,0,2012-11-04 05:15:00
1:35 AM,50.0,50.0,100,30.03,10.0,Calm,Calm,-,N/A,,Clear,0,2012-11-04 05:35:00
1:55 AM,51.8,50.0,94,30.03,10.0,Calm,Calm,-,N/A,,Clear,0,2012-11-04 05:55:00
1:15 AM,51.8,51.8,100,30.03,10.0,Calm,Calm,-,N/A,,Clear,0,2012-11-04 06:15:00
1:35 AM,51.8,51.8,100,30.03,10.0,Calm,Calm,-,N/A,,Clear,0,2012-11-04 06:35:00
1:55 AM,51.8,51.8,100,30.02,10.0,Calm,Calm,-,N/A,,Clear,0,2012-11-04 06:55:00
2:15 AM,51.8,51.8,100,30.02,10.0,South,3.5,-,N/A,,Clear,190,2012-11-04 07:15:00
3:15 AM,53.6,51.8,94,30.01,10.0,SSW,3.5,-,N/A,,Clear,210,2012-11-04 08:15:00
3:55 AM,53.6,53.6,100,30.01,10.0,SW,3.5,-,N/A,,Clear,220,2012-11-04 08:55:00
4:15 AM,53.6,53.6,100,30.01,10.0,SSW,3.5,-,N/A,,Clear,200,2012-11-04 09:15:00
4:55 AM,53.6,53.6,100,30.01,10.0,Calm,Calm,-,N/A,,Clear,0,2012-11-04 09:55:00
5:15 AM,53.6,53.6,100,30.01,10.0,SSW,3.5,-,N/A,,Clear,200,2012-11-04 10:15:00
5:35 AM,53.6,53.6,100,30.01,7.0,Calm,Calm,-,N/A,,Clear,0,2012-11-04 10:35:00
5:55 AM,51.8,51.8,100,30.01,3.0,Calm,Calm,-,N/A,,Clear,0,2012-11-04 10:55:00
6:15 AM,51.8,51.8,100,30.01,5.0,SSW,3.5,-,N/A,,Clear,200,2012-11-04 11:15:00
6:35 AM,51.8,51.8,100,30.01,7.0,Calm,Calm,-,N/A,,Clear,0,2012-11-04 11:35:00
6:55 AM,51.8,51.8,100,30.02,5.0,SW,3.5,-,N/A,,Clear,230,2012-11-04 11:55:00
7:15 AM,51.8,51.8,100,30.02,10.0,South,3.5,-,N/A,,Clear,190,2012-11-04 12:15:00
7:35 AM,55.4,55.4,100,30.02,7.0,SW,4.6,-,N/A,,Clear,220,2012-11-04 12:35:00
7:55 AM,59.0,55.4,88,30.02,10.0,WSW,4.6,-,N/A,,Clear,240,2012-11-04 12:55:00
8:15 AM,60.8,57.2,88,30.02,10.0,SW,5.8,-,N/A,,Clear,230,2012-11-04 13:15:00
8:35 AM,62.6,57.2,82,30.02,10.0,WSW,4.6,-,N/A,,Clear,240,2012-11-04 13:35:00
8:55 AM,64.4,55.4,73,30.02,10.0,WSW,6.9,-,N/A,,Clear,240,2012-11-04 13:55:00
9:15 AM,68.0,55.4,64,30.02,10.0,West,6.9,-,N/A,,Clear,260,2012-11-04 14:15:00
9:35 AM,69.8,55.4,60,30.01,10.0,West,8.1,-,N/A,,Clear,260,2012-11-04 14:35:00
9:55 AM,71.6,55.4,57,30.01,10.0,WSW,6.9,-,N/A,,Clear,250,2012-11-04 14:55:00
10:15 AM,73.4,55.4,53,30.01,10.0,West,4.6,-,N/A,,Clear,270,2012-11-04 15:15:00
10:35 AM,75.2,55.4,50,30.00,10.0,WNW,6.9,-,N/A,,Clear,300,2012-11-04 15:35:00
11:15 AM,78.8,55.4,44,29.99,10.0,WSW,8.1,-,N/A,,Clear,250,2012-11-04 16:15:00
11:55 AM,78.8,53.6,42,29.97,10.0,WNW,10.4,-,N/A,,Clear,290,2012-11-04 16:55:00
12:15 PM,80.6,53.6,39,29.96,10.0,WSW,9.2,-,N/A,,Clear,250,2012-11-04 17:15:00
12:55 PM,80.6,51.8,37,29.94,10.0,West,9.2,18.4,N/A,,Clear,260,2012-11-04 17:55:00
1:15 PM,80.6,51.8,37,29.93,10.0,West,11.5,-,N/A,,Clear,280,2012-11-04 18:15:00
1:55 PM,82.4,51.8,35,29.93,10.0,WNW,12.7,-,N/A,,Clear,290,2012-11-04 18:55:00
2:15 PM,82.4,51.8,35,29.92,10.0,WSW,11.5,-,N/A,,Clear,240,2012-11-04 19:15:00
2:55 PM,80.6,50.0,34,29.91,10.0,West,4.6,-,N/A,,Clear,260,2012-11-04 19:55:00
3:15 PM,80.6,50.0,34,29.90,10.0,WSW,4.6,-,N/A,,Clear,240,2012-11-04 20:15:00
3:35 PM,80.6,50.0,34,29.90,10.0,WSW,8.1,-,N/A,,Scattered Clouds,240,2012-11-04 20:35:00
3:55 PM,78.8,50.0,36,29.92,10.0,West,9.2,-,N/A,,Mostly Cloudy,270,2012-11-04 20:55:00
4:15 PM,73.4,51.8,47,29.91,10.0,Calm,Calm,-,N/A,,Mostly Cloudy,0,2012-11-04 21:15:00
4:35 PM,71.6,51.8,50,29.90,10.0,Calm,Calm,-,N/A,,Mostly Cloudy,0,2012-11-04 21:35:00
4:55 PM,71.6,53.6,53,29.90,10.0,Calm,Calm,-,N/A,,Mostly Cloudy,0,2012-11-04 21:55:00
5:15 PM,69.8,55.4,60,29.93,10.0,WNW,21.9,38.0,N/A,Rain-Thunderstorm,Light Thunderstorms and Rain,290,2012-11-04 22:15:00
5:35 PM,62.6,55.4,77,29.90,4.0,North,8.1,26.5,N/A,Rain-Thunderstorm,Rain,350,2012-11-04 22:35:00
5:55 PM,62.6,59.0,88,29.92,10.0,South,4.6,-,N/A,,Mostly Cloudy,190,2012-11-04 22:55:00
6:15 PM,60.8,60.8,100,29.92,10.0,South,5.8,-,N/A,,Mostly Cloudy,170,2012-11-04 23:15:00
6:35 PM,60.8,60.8,100,29.92,10.0,Calm,Calm,-,N/A,,Mostly Cloudy,0,2012-11-04 23:35:00
6:55 PM,60.8,59.0,94,29.96,10.0,WSW,11.5,16.1,N/A,,Overcast,250,2012-11-04 23:55:00
7:15 PM,62.6,59.0,88,29.94,10.0,SSW,3.5,-,N/A,Rain,Light Rain,200,2012-11-05 00:15:00
7:35 PM,62.6,59.0,88,29.91,10.0,Calm,Calm,-,N/A,,Overcast,0,2012-11-05 00:35:00
7:55 PM,60.8,60.8,100,29.91,10.0,NW,4.6,-,N/A,,Overcast,320,2012-11-05 00:55:00
8:15 PM,60.8,60.8,100,29.91,10.0,Calm,Calm,-,N/A,,Scattered Clouds,0,2012-11-05 01:15:00
8:55 PM,60.8,59.0,94,29.94,10.0,South,5.8,-,N/A,,Clear,170,2012-11-05 01:55:00
9:15 PM,60.8,60.8,100,29.94,10.0,Calm,Calm,-,N/A,,Clear,0,2012-11-05 02:15:00
9:35 PM,60.8,59.0,94,29.94,10.0,NNW,3.5,-,N/A,,Clear,340,2012-11-05 02:35:00
9:55 PM,59.0,59.0,100,29.94,10.0,Calm,Calm,-,N/A,,Clear,0,2012-11-05 02:55:00
10:35 PM,60.8,59.0,94,29.94,10.0,North,3.5,-,N/A,Rain,Light Rain,10,2012-11-05 03:35:00